Change the Weather History Date:

Wednesday, September 5, 2012

  Actual Average Record
Temperature  
Mean Temperature 82 °F 79 °F  
Max Temperature 90 °F 90 °F 103 °F (1954)
Min Temperature 74 °F 68 °F 54 °F (1984)
Degree Days  
Heating Degree Days 0 0  
Month to date heating degree days 0 0  
Since 1 July heating degree days 0 0  
Cooling Degree Days 16    
Growing Degree Days 32 (Base 50)    
Moisture  
Dew Point 73 °F    
Average Humidity 77    
Maximum Humidity 94    
Minimum Humidity 59    
Precipitation  
Precipitation T in 0.11 in 6.43 in (2011)
Month to date precipitation 5.08 0.53  
Year to date precipitation 34.77 36.40  
Sea Level Pressure  
Sea Level Pressure 29.89 in    
Wind  
Wind Speed 3 mph (ESE)    
Max Wind Speed 14 mph    
Max Gust Speed 18 mph    
Visibility 9 miles    
Events      
T = Trace of Precipitation, MM = Missing Value Source: NWS Daily Summary

Daily Weather History Graph

Daily Weather History Graph

Search for Another Location

Airport or City:

Trip Planner

Search our weather history database for the weather conditions in past years. The results will help you decide how hot, cold, wet, or windy it might be!

Date:

Astronomy

Sep. 05, 2012 Rise Set
Actual Time 6:27 AM CDT 7:09 PM CDT
Civil Twilight 6:02 AM CDT 7:34 PM CDT
Nautical Twilight 5:33 AM CDT 8:04 PM CDT
Astronomical Twilight 5:02 AM CDT 8:34 PM CDT
Moon 9:59 PM CDT (9/5) 11:12 AM CDT (9/5)
Length of Visible Light 13h 32m
Length of Day
12h 41m
Waning Gibbous, 76% of the Moon is Illuminated
Sep 5
Waning Gibbous
Sep 8
Last Quarter
Sep 15
New
Sep 22
First Quarter
Sep 29
Full

Hourly Weather History & Observations

Time (CDT) Temp. Heat Index Dew Point Humidity Pressure Visibility Wind Dir Wind Speed Gust Speed Precip Events Conditions
12:11 AM 75.2 °F - 73.4 °F 94% 29.88 in 10.0 mi SE 8.1 mph - N/A   Scattered Clouds
12:53 AM 75.0 °F - 73.0 °F 94% 29.87 in 10.0 mi SE 4.6 mph - N/A   Scattered Clouds
1:06 AM 75.2 °F - 73.4 °F 94% 29.88 in 10.0 mi SSE 3.5 mph - N/A   Mostly Cloudy
1:53 AM 75.0 °F - 73.0 °F 94% 29.87 in 9.0 mi SE 4.6 mph - N/A   Overcast
2:36 AM 75.2 °F - 73.4 °F 94% 29.88 in 9.0 mi Calm Calm - N/A   Overcast
2:53 AM 75.0 °F - 73.0 °F 94% 29.87 in 8.0 mi Calm Calm - N/A   Overcast
3:29 AM 75.2 °F - 73.4 °F 94% 29.89 in 8.0 mi Calm Calm - N/A   Overcast
3:53 AM 75.0 °F - 73.0 °F 94% 29.88 in 8.0 mi Calm Calm - N/A   Overcast
4:00 AM 75.2 °F - 73.4 °F 94% 29.88 in 8.0 mi Calm Calm - N/A   Overcast
4:53 AM 75.0 °F - 72.0 °F 90% 29.89 in 10.0 mi East 4.6 mph - N/A   Overcast
5:53 AM 73.9 °F - 71.1 °F 91% 29.90 in 10.0 mi East 4.6 mph - N/A   Overcast
6:53 AM 73.9 °F - 72.0 °F 93% 29.91 in 6.0 mi Calm Calm - N/A   Overcast
7:53 AM 73.9 °F - 71.1 °F 91% 29.92 in 8.0 mi East 5.8 mph - N/A   Overcast
8:53 AM 75.9 °F - 71.1 °F 85% 29.92 in 8.0 mi ESE 5.8 mph - N/A   Overcast
9:53 AM 79.0 °F - 72.0 °F 79% 29.94 in 7.0 mi Calm Calm - N/A   Mostly Cloudy
10:02 AM 80.6 °F 84.6 °F 71.6 °F 74% 29.94 in 7.0 mi Calm Calm - N/A   Overcast
10:53 AM 80.1 °F 83.8 °F 72.0 °F 76% 29.93 in 8.0 mi Calm Calm - N/A   Mostly Cloudy
11:09 AM 82.4 °F 88.2 °F 73.4 °F 74% 29.94 in 9.0 mi NE 3.5 mph - N/A   Scattered Clouds
11:53 AM 84.9 °F 91.4 °F 73.0 °F 67% 29.92 in 10.0 mi Variable 4.6 mph - N/A   Partly Cloudy
12:53 PM 87.1 °F 94.5 °F 73.0 °F 63% 29.90 in 10.0 mi NE 3.5 mph - N/A   Partly Cloudy
1:53 PM 88.0 °F 95.6 °F 73.0 °F 61% 29.88 in 10.0 mi Calm Calm - N/A   Mostly Cloudy
2:53 PM 90.0 °F 97.9 °F 73.0 °F 57% 29.86 in 10.0 mi Variable 3.5 mph - N/A   Mostly Cloudy
3:53 PM 88.0 °F 96.5 °F 73.9 °F 63% 29.86 in 10.0 mi ESE 3.5 mph - 0.00 in   Scattered Clouds
4:53 PM 89.1 °F 98.0 °F 73.9 °F 61% 29.84 in 10.0 mi South 5.8 mph - N/A   Partly Cloudy
5:53 PM 86.0 °F 93.0 °F 73.0 °F 65% 29.84 in 10.0 mi East 3.5 mph - N/A   Scattered Clouds
6:53 PM 84.9 °F 91.4 °F 73.0 °F 67% 29.85 in 10.0 mi ESE 3.5 mph - N/A   Clear
7:53 PM 82.9 °F 89.4 °F 73.9 °F 74% 29.86 in 10.0 mi SE 4.6 mph - N/A   Clear
8:53 PM 81.0 °F 86.7 °F 75.0 °F 82% 29.87 in 10.0 mi Calm Calm - N/A   Clear
9:53 PM 79.0 °F - 75.0 °F 88% 29.89 in 9.0 mi Calm Calm - N/A   Clear
10:53 PM 77.0 °F - 75.0 °F 94% 29.90 in 8.0 mi Calm Calm - N/A   Clear
11:53 PM 77.0 °F - 75.0 °F 94% 29.92 in 7.0 mi North 6.9 mph - N/A   Partly Cloudy